Overview Statistics Trail Chart Weather Telemetry Raw packets
 

This is the latest recevied weather packets stored in our database for station/object JA0BES-13. If no packets are shown the sender has not sent any weather packets the latest 10 day(s).

<< 1 2 3 4 5 6 7 >>
Time Temp. Humidity Pressure Rain* Wind** Luminosity Snow
1788588412 28.89° C 75% 1011.2 hPa 0 mm - - -
1788587812 29.44° C 74% 1011.1 hPa 0 mm - - -
1788587212 29.44° C 74% 1010.9 hPa 0 mm - - -
1788586612 29.44° C 72% 1011.1 hPa 0 mm - - -
1788586011 29.44° C 72% 1011 hPa 0 mm - - -
1788585411 30° C 72% 1011.1 hPa 0 mm - - -
1788584810 30° C 71% 1011 hPa 0 mm - - -
1788584210 30° C 71% 1010.9 hPa 0 mm - - -
1788583610 30.56° C 70% 1010.8 hPa 0 mm - - -
1788583009 30.56° C 72% 1010.8 hPa 0 mm - - -
1788582409 30.56° C 71% 1010.8 hPa 0 mm - - -
1788581824 31.11° C 71% 1010.9 hPa 0 mm - - -
1788581208 30.56° C 72% 1010.9 hPa 0 mm - - -
1788580608 30.56° C 72% 1011.1 hPa 0 mm - - -
1788580007 30.56° C 72% 1011.1 hPa 0 mm - - -
1788579407 30.56° C 74% 1011.2 hPa 0 mm - - -
1788578807 30° C 73% 1011.3 hPa 0 mm - - -
1788578207 30° C 72% 1011.5 hPa 0 mm - - -
1788577606 30° C 73% 1011.7 hPa 0 mm - - -
1788577006 30° C 73% 1011.8 hPa 0 mm - - -
1788576405 30° C 76% 1012.1 hPa 0 mm - - -
1788575805 29.44° C 76% 1012.1 hPa 0 mm - - -
1788575205 29.44° C 78% 1012.3 hPa 0 mm - - -
1788574605 28.89° C 80% 1012.3 hPa 0 mm - - -
1788574004 28.33° C 82% 1012.2 hPa 0 mm - - -

* Rain since midnight (hover to see other rain measurements)
** Current wind speed in m/s (hover to see current wind gust speed)